DW3435 Weather Reports


Display with metric or nautical units.
time (UTC)temp
F
wind
direction
speed
MPH
gust
MPH
rain 1hr
in
rain 24hr
in
rain mn
in
humidity
%
barometer
mb
20180920021737 71 233 0.0 0.0 0.00 0.31 0.31 96 1015.6
20180920020237 72 232 0.0 0.0 0.00 0.31 0.31 96 1015.6
20180920014735 72 234 0.0 0.0 0.00 0.31 0.31 96 1015.4
20180920013234 72 232 0.0 0.0 0.00 0.31 0.31 95 1015.4
20180920011734 72 234 0.0 0.0 0.00 0.31 0.31 95 1015.2
20180920010233 73 232 0.0 0.0 0.00 0.31 0.31 95 1015.0
20180920004732 73 234 0.0 0.0 0.00 0.31 0.31 95 1014.8
20180920003232 74 234 0.0 0.0 0.00 0.31 0.31 95 1014.6
20180920001903 74 232 0.0 0.0 0.00 0.31 0.31 95 1014.4
20180920000233 75 234 0.0 0.0 0.01 0.31 0.31 95 1014.5
20180919234733 75 232 0.0 0.0 0.01 0.31 0.31 94 1014.4
20180919233232 76 233 0.0 0.0 0.01 0.31 0.31 95 1014.2
20180919231730 76 232 0.0 0.0 0.01 0.31 0.31 95 1014.2
20180919230230 76 232 0.0 0.0 0.00 0.30 0.30 95 1014.0
20180919224730 76 234 0.0 0.0 0.00 0.30 0.30 95 1014.0
20180919223228 77 234 0.0 0.0 0.00 0.30 0.30 95 1014.0
20180919221732 77 234 0.0 0.0 0.00 0.30 0.30 95 1013.8
20180919220230 76 232 0.0 0.0 0.00 0.30 0.30 93 1013.8
20180919214727 77 232 0.0 0.0 0.00 0.30 0.30 91 1014.0
20180919213226 78 233 0.0 0.0 0.00 0.30 0.30 89 1013.9
20180919211727 79 234 0.0 0.0 0.00 0.30 0.30 91 1013.9
20180919210226 79 232 0.0 0.0 0.00 0.30 0.30 91 1013.8
20180919204727 79 233 0.0 3.0 0.02 0.30 0.30 92 1013.9
20180919203227 78 232 0.0 0.0 0.30 0.30 0.30 94 1013.7
20180919201724 77 233 0.0 0.0 0.30 0.30 0.30 91 1013.9
20180919200225 78 233 0.0 0.0 0.30 0.30 0.30 86 1014.1
20180919194801 82 227 4.0 10.0 0.28 0.28 0.28 75 1014.3
20180919193224 87 53 0.0 9.0 0.00 0.00 0.00 64 1014.1
20180919191721 90 86 0.0 3.0 0.00 0.00 0.00 60 1014.0
20180919190223 91 84 0.0 0.0 0.00 0.00 0.00 58 1014.1
20180919184721 91 85 0.0 1.0 0.00 0.00 0.00 57 1014.2
20180919183218 90 76 0.0 0.0 0.00 0.00 0.00 64 1014.4
20180919181725 90 74 0.0 0.0 0.00 0.00 0.00 61 1014.6
20180919180212 89 52 0.0 3.0 0.00 0.00 0.00 59 1014.6
20180919174720 89 72 0.0 2.0 0.00 0.00 0.00 60 1014.8
20180919173211 88 40 0.0 4.0 0.00 0.00 0.00 61 1015.0
20180919171710 88 220 0.0 1.0 0.00 0.00 0.00 61 1015.2
20180919170206 88 82 0.0 0.0 0.00 0.00 0.00 66 1015.4
20180919164702 86 135 0.0 3.0 0.00 0.00 0.00 67 1015.6
20180919163221 85 130 0.0 0.0 0.00 0.00 0.00 71 1015.7
20180919161655 84 99 0.0 1.0 0.00 0.00 0.00 71 1015.8
20180919160157 83 210 0.0 0.0 0.00 0.00 0.00 72 1016.1
20180919154651 83 105 0.0 0.0 0.00 0.00 0.00 75 1016.1
20180919153145 81 32 0.0 0.0 0.00 0.00 0.00 80 1016.1
20180919151646 80 32 0.0 0.0 0.00 0.00 0.00 80 1016.3
20180919150141 80 32 0.0 0.0 0.00 0.00 0.00 83 1016.2
20180919144648 79 32 0.0 0.0 0.00 0.00 0.00 84 1016.2
20180919143249 77 32 0.0 0.0 0.00 0.00 0.00 88 1016.0
20180919141631 75 31 0.0 0.0 0.00 0.00 0.00 89 1015.8
20180919140124 73 31 0.0 0.0 0.00 0.00 0.00 93 1015.8
20180919134620 72 31 0.0 0.0 0.00 0.00 0.00 95 1015.8
20180919133242 71 32 0.0 0.0 0.00 0.00 0.00 98 1015.7
20180919131657 69 32 0.0 0.0 0.00 0.00 0.00 99 1015.7
20180919130134 68 31 0.0 0.0 0.00 0.00 0.00 99 1015.9
20180919124615 68 31 0.0 0.0 0.00 0.00 0.00 98 1015.7
20180919123149 67 32 0.0 0.0 0.00 0.00 0.00 98 1015.7
20180919121611 67 31 0.0 0.0 0.00 0.00 0.00 98 1015.6
20180919120134 67 31 0.0 0.0 0.00 0.00 0.00 98 1015.5
20180919114558 66 32 0.0 0.0 0.00 0.00 0.00 98 1015.3
20180919113056 66 31 0.0 0.0 0.00 0.00 0.00 98 1015.1
20180919111644 66 31 0.0 0.0 0.00 0.00 0.00 98 1015.0
20180919110059 66 31 0.0 0.0 0.00 0.00 0.00 98 1014.7
20180919104623 66 31 0.0 0.0 0.00 0.00 0.00 98 1014.5
20180919103051 66 31 0.0 0.0 0.00 0.00 0.00 98 1014.4
20180919101629 65 31 0.0 0.0 0.00 0.00 0.00 98 1014.3
20180919100048 65 31 0.0 0.0 0.00 0.00 0.00 98 1014.1
20180919094552 65 32 0.0 0.0 0.00 0.00 0.00 97 1014.0
20180919093102 65 32 0.0 0.0 0.00 0.00 0.00 97 1013.9
20180919090044 65 32 0.0 0.0 0.00 0.00 0.00 97 1013.3
20180919084608 65 32 0.0 0.0 0.00 0.00 0.00 97 1013.3
20180919083046 65 31 0.0 0.0 0.00 0.00 0.00 97 1013.3
20180919081554 66 32 0.0 0.0 0.00 0.00 0.00 97 1013.3
20180919080046 66 31 0.0 0.0 0.00 0.00 0.00 97 1013.3
20180919074625 66 32 0.0 0.0 0.00 0.00 0.00 97 1013.3
20180919073032 66 31 0.0 0.0 0.00 0.00 0.00 97 1013.3
20180919071628 66 32 0.0 0.0 0.00 0.00 0.00 97 1013.4
20180919070033 66 31 0.0 0.0 0.00 0.00 0.00 97 1013.4
20180919064605 66 31 0.0 0.0 0.00 0.00 0.00 97 1013.3
20180919063033 66 32 0.0 0.0 0.00 0.00 0.00 96 1013.3
20180919061546 66 31 0.0 0.0 0.00 0.00 0.00 96 1013.4
20180919060052 67 32 0.0 0.0 0.00 0.00 0.00 96 1013.3
20180919054542 67 31 0.0 0.0 0.00 0.00 0.00 96 1013.4
20180919053043 67 31 0.0 0.0 0.00 0.00 0.00 96 1013.5
20180919051541 67 31 0.0 0.0 0.00 0.00 0.00 96 1013.5
20180919050037 67 31 0.0 0.0 0.00 0.00 0.00 96 1013.3
20180919044529 68 31 0.0 0.0 0.00 0.00 0.00 96 1013.3
20180919043020 68 31 0.0 0.0 0.00 0.00 0.00 95 1013.4
20180919041519 68 31 0.0 0.0 0.00 0.00 0.00 95 1013.5
20180919040023 68 31 0.0 0.0 0.00 0.00 0.00 95 1013.6
20180919034528 69 32 0.0 0.0 0.00 0.00 0.00 95 1013.5
20180919033011 69 32 0.0 0.0 0.00 0.00 0.00 95 1013.5
20180919031513 69 31 0.0 0.0 0.00 0.00 0.00 95 1013.4
20180919030054 70 31 0.0 0.0 0.00 0.00 0.00 95 1013.3
20180919024519 70 32 0.0 0.0 0.00 0.00 0.00 94 1013.3
20180919023013 70 32 0.0 0.0 0.00 0.00 0.00 94 1013.2